Inverness, FL

9:03 AM EDT on September 19, 2017 (GMT -0400)
Inverness

Weather History for KINF - October, 2012

Change the Weather History Date:

Wednesday, October 10, 2012

  Actual Average (KBKV) Record (KBKV)
Temperature  
Mean Temperature 73 °F -  
Max Temperature 82 °F 83 °F 91 °F (2005)
Min Temperature 64 °F 62 °F 46 °F (2000)
Cooling Degree Days 8    
Growing Degree Days 23 (Base 50)    
Moisture  
Dew Point 65 °F    
Average Humidity 80    
Maximum Humidity 100    
Minimum Humidity 45    
Precipitation  
Precipitation 0.00 in - - ()
Sea Level Pressure  
Sea Level Pressure 30.10 in    
Wind  
Wind Speed 3 mph ()    
Max Wind Speed 9 mph    
Max Gust Speed -    
Visibility 8.2 miles    
Events      
Averages and records for this station are not official NWS values.
T = Trace of Precipitation, MM = Missing Value Source: Averaged Metar Reports

Daily Weather History Graph

Daily Weather History Graph

Search for Another Location

Airport or City:

Trip Planner

Search our weather history database for the weather conditions in past years. The results will help you decide how hot, cold, wet, or windy it might be!

Date:

Astronomy

Oct. 10, 2012 Rise Set
Actual Time 7:27 AM EDT 7:04 PM EDT
Civil Twilight 7:03 AM EDT 7:27 PM EDT
Nautical Twilight 6:36 AM EDT 7:55 PM EDT
Astronomical Twilight 6:09 AM EDT 8:22 PM EDT
Moon 2:26 AM EDT (10/10) 3:45 PM EDT (10/10)
Length of Visible Light 12h 24m
Length of Day
11h 36m
Waning Crescent, 27% of the Moon is Illuminated
Oct 10
Waning Crescent
Oct 15
New
Oct 21
First Quarter
Oct 29
Full
Nov 6
Last Quarter

Hourly Weather History & Observations

Time (EDT) Temp. Heat Index Dew Point Humidity Pressure Visibility Wind Dir Wind Speed Gust Speed Precip Events Conditions
12:15 AM 69.8 °F - 68.0 °F 94% 30.10 in - NE 4.6 mph - N/A   Mostly Cloudy
12:35 AM 69.8 °F - 66.2 °F 88% 30.09 in - NE 3.5 mph - N/A   Unknown
12:55 AM 69.8 °F - 68.0 °F 94% 30.09 in - NE 3.5 mph - N/A   Unknown
1:15 AM 68.0 °F - 66.2 °F 94% 30.09 in - Calm Calm - N/A   Unknown
1:35 AM 68.0 °F - 68.0 °F 100% 30.09 in - Calm Calm - N/A   Unknown
1:55 AM 68.0 °F - 66.2 °F 94% 30.09 in - Calm Calm - N/A   Unknown
2:15 AM 68.0 °F - 66.2 °F 94% 30.08 in - Calm Calm - N/A   Unknown
2:35 AM 68.0 °F - 66.2 °F 94% 30.08 in - NNE 3.5 mph - N/A   Unknown
2:55 AM 68.0 °F - 66.2 °F 94% 30.08 in - Calm Calm - N/A   Unknown
3:15 AM 68.0 °F - 66.2 °F 94% 30.07 in - NNE 4.6 mph - N/A   Unknown
3:35 AM 68.0 °F - 66.2 °F 94% 30.07 in - Calm Calm - N/A   Unknown
3:55 AM 66.2 °F - 66.2 °F 100% 30.07 in - NNE 3.5 mph - N/A   Mostly Cloudy
4:15 AM 68.0 °F - 68.0 °F 100% 30.07 in - NNE 4.6 mph - N/A   Mostly Cloudy
4:35 AM 68.0 °F - 66.2 °F 94% 30.07 in - Calm Calm - N/A   Unknown
4:55 AM 68.0 °F - 66.2 °F 94% 30.07 in - NNE 4.6 mph - N/A   Unknown
5:15 AM 66.2 °F - 64.4 °F 94% 30.08 in - Calm Calm - N/A   Unknown
5:35 AM 64.4 °F - 64.4 °F 100% 30.08 in - Calm Calm - N/A   Unknown
5:55 AM 66.2 °F - 64.4 °F 94% 30.08 in - Calm Calm - N/A   Unknown
6:15 AM 64.4 °F - 64.4 °F 100% 30.09 in - Calm Calm - N/A   Unknown
6:35 AM 64.4 °F - 64.4 °F 100% 30.09 in - Calm Calm - N/A   Unknown
6:55 AM 64.4 °F - 64.4 °F 100% 30.10 in - Calm Calm - N/A   Unknown
7:15 AM 64.4 °F - 64.4 °F 100% 30.10 in - Calm Calm - N/A   Unknown
7:35 AM 64.4 °F - 64.4 °F 100% 30.11 in - Calm Calm - N/A   Unknown
7:55 AM 64.4 °F - 64.4 °F 100% 30.11 in - Calm Calm - N/A   Unknown
8:15 AM 66.2 °F - 66.2 °F 100% 30.11 in - Calm Calm - N/A   Mostly Cloudy
8:35 AM 68.0 °F - 66.2 °F 94% 30.12 in - Calm Calm - N/A   Unknown
8:55 AM 69.8 °F - 66.2 °F 88% 30.13 in - NE 3.5 mph - N/A   Unknown
9:35 AM 71.6 °F - 68.0 °F 88% 30.13 in - NNE 3.5 mph - N/A   Clear
9:55 AM 73.4 °F - 68.0 °F 83% 30.14 in - NE 4.6 mph - N/A   Clear
10:15 AM 75.2 °F - 68.0 °F 78% 30.14 in - NE 6.9 mph - N/A   Clear
10:35 AM 77.0 °F - 68.0 °F 74% 30.15 in - North 6.9 mph - N/A   Clear
10:55 AM 77.0 °F - 68.0 °F 74% 30.15 in - North 6.9 mph - N/A   Clear
11:15 AM 78.8 °F - 68.0 °F 69% 30.15 in - North 5.8 mph - N/A   Scattered Clouds
11:35 AM 78.8 °F - 66.2 °F 65% 30.14 in - North 6.9 mph - N/A   Clear
11:55 AM 78.8 °F - 66.2 °F 65% 30.14 in - North 8.1 mph - N/A   Clear
12:15 PM 78.8 °F - 64.4 °F 61% 30.14 in - NE 9.2 mph - N/A   Clear
12:55 PM 80.6 °F 81.8 °F 62.6 °F 54% 30.12 in - NNE 9.2 mph - N/A   Clear
1:15 PM 80.6 °F 81.8 °F 62.6 °F 54% 30.12 in - NNW 5.8 mph - N/A   Clear
1:35 PM 82.4 °F 83.4 °F 62.6 °F 51% 30.11 in - North 4.6 mph - N/A   Clear
1:55 PM 82.4 °F 82.9 °F 60.8 °F 48% 30.11 in - NNW 5.8 mph - N/A   Clear
2:15 PM 80.6 °F 81.5 °F 60.8 °F 51% 30.10 in - North 5.8 mph - N/A   Clear
2:35 PM 82.4 °F 83.4 °F 62.6 °F 51% 30.09 in - North 6.9 mph - N/A   Clear
2:55 PM 82.4 °F 82.9 °F 60.8 °F 48% 30.08 in - NNE 6.9 mph - N/A   Scattered Clouds
3:15 PM 82.4 °F 83.4 °F 62.6 °F 51% 30.08 in - NNE 8.1 mph - N/A   Scattered Clouds
3:35 PM 82.4 °F 82.5 °F 59.0 °F 45% 30.07 in - North 6.9 mph - N/A   Clear
3:55 PM 82.4 °F 82.9 °F 60.8 °F 48% 30.06 in - NE 4.6 mph - N/A   Clear
4:15 PM 82.4 °F 82.9 °F 60.8 °F 48% 30.06 in - NE 6.9 mph - N/A   Clear
4:35 PM 82.4 °F 82.9 °F 60.8 °F 48% 30.06 in - NE 6.9 mph - N/A   Clear
4:55 PM 82.4 °F 82.9 °F 60.8 °F 48% 30.06 in - North 3.5 mph - N/A   Clear
5:15 PM 80.6 °F 81.5 °F 60.8 °F 51% 30.06 in - North 4.6 mph - N/A   Clear
5:35 PM 80.6 °F 81.5 °F 60.8 °F 51% 30.06 in - North 4.6 mph - N/A   Clear
5:55 PM 80.6 °F 81.5 °F 60.8 °F 51% 30.06 in - North 5.8 mph - N/A   Clear
6:15 PM 78.8 °F - 60.8 °F 54% 30.06 in - Calm Calm - N/A   Clear
6:35 PM 75.2 °F - 62.6 °F 65% 30.06 in - Calm Calm - N/A   Clear
6:55 PM 73.4 °F - 64.4 °F 73% 30.06 in - Calm Calm - N/A   Clear
7:15 PM 71.6 °F - 64.4 °F 78% 30.07 in 4.0 mi Calm Calm - N/A   Haze
7:35 PM 69.8 °F - 64.4 °F 83% 30.07 in 7.0 mi Calm Calm - N/A   Clear
8:15 PM 68.0 °F - 64.4 °F 88% 30.08 in 10.0 mi Calm Calm - N/A   Clear
8:35 PM 68.0 °F - 64.4 °F 88% 30.09 in - Calm Calm - N/A   Unknown
8:55 PM 68.0 °F - 64.4 °F 88% 30.10 in - Calm Calm - N/A   Unknown
9:15 PM 68.0 °F - 64.4 °F 88% 30.11 in - Calm Calm - N/A   Unknown
9:35 PM 66.2 °F - 64.4 °F 94% 30.11 in - Calm Calm - N/A   Unknown
9:55 PM 66.2 °F - 64.4 °F 94% 30.12 in - Calm Calm - N/A   Unknown
10:15 PM 64.4 °F - 64.4 °F 100% 30.13 in - Calm Calm - N/A   Unknown
10:35 PM 64.4 °F - 64.4 °F 100% 30.14 in 10.0 mi Calm Calm - N/A   Clear
10:55 PM 64.4 °F - 64.4 °F 100% 30.14 in 10.0 mi Calm Calm - N/A   Clear
11:15 PM 64.4 °F - 64.4 °F 100% 30.14 in - Calm Calm - N/A   Unknown
11:35 PM 64.4 °F - 64.4 °F 100% 30.14 in - Calm Calm - N/A   Unknown
11:55 PM 64.4 °F - 64.4 °F 100% 30.14 in - Calm Calm - N/A   Unknown